[[{"header":{"parameterUnit":"m.s-1","parameterCategory":1,"la1":30.2991,"la2":30.254,"lo1":-89.0895,"lo2":-89.0444,"dy":0.0017,"dx":0.0017,"nx":28,"ny":28,"refTime":"2024-05-15T09:00:00:Z","depth":0,"parameterNumber":2,"parameterNumberName":"U-component_of_WINDS"},"data":[0,0,0,0,0,0,0,0,0,0,0,0,0,0,0,0,0,0,0,0,0,0,0,0,0,0,0,0,0,0,0,0,0,0,0,0,0,0,0,0,0,0,0,0,0,0,0,0,0,0,0,0,0,0,0,0,0,0,-1.6448,-1.6449,0,-1.6504,-1.6505,-1.6505,-1.6522,-1.6522,-1.6522,-1.6521,-1.6578,-1.658,-1.6581,0,0,0,0,0,0,0,0,0,0,0,0,0,-1.6358,-1.6359,-1.6448,-1.6449,-1.645,-1.6504,-1.6505,-1.6506,-1.6522,-1.6522,-1.6522,-1.6521,-1.6577,-1.6579,-1.6582,0,0,0,0,0,0,0,0,0,0,0,0,0,-1.6404,-1.636,-1.6448,-1.6465,-1.6467,-1.6504,-1.6505,-1.6506,-1.6522,-1.6522,-1.6521,-1.6521,-1.6577,-1.6579,-1.6582,-1.6607,0,0,-1.659,-1.6591,0,0,0,0,0,0,0,0,-1.6401,-1.6407,-1.6461,-1.6464,-1.6466,-1.6506,-1.6494,-1.654,-1.6522,-1.6501,-1.6521,-1.6521,-1.6554,-1.6559,-1.657,-1.6609,-1.6612,-1.659,-1.6592,-1.6593,-1.6594,0,0,0,0,0,0,0,-1.6398,-1.6405,-1.647,-1.6462,-1.6465,-1.647,-1.6476,-1.6503,-1.6529,-1.6503,-1.6504,-1.6511,-1.6555,-1.6567,-1.6572,-1.6613,-1.659,-1.6592,-1.6594,-1.6595,-1.6678,-1.6678,0,0,0,0,0,0,-1.6392,-1.6402,-1.6469,-1.6472,-1.6432,-1.6472,-1.6478,-1.6493,-1.6529,-1.6534,-1.6511,-1.6511,-1.6563,-1.6568,-1.6574,-1.6606,-1.6593,-1.6595,-1.6597,-1.6677,-1.6678,-1.6678,0,0,0,0,0,0,-1.639,-1.6398,-1.6466,-1.6437,-1.6447,-1.6474,-1.649,-1.6495,-1.6507,-1.6535,-1.654,-1.6518,-1.6563,-1.657,-1.6599,-1.6608,-1.6597,-1.6599,-1.6676,-1.6677,-1.6678,-1.6671,0,0,0,0,0,0,-1.6387,-1.6397,-1.6406,-1.6438,-1.6448,-1.649,-1.6491,-1.6496,-1.6511,-1.6512,-1.6543,-1.6548,-1.6563,-1.6595,-1.6602,-1.6612,-1.6601,-1.6676,-1.6677,-1.6678,-1.667,-1.6671,-1.6672,0,0,0,0,0,-1.6384,-1.6401,-1.6406,-1.6414,-1.646,-1.6491,-1.6497,-1.6514,-1.6512,-1.6522,-1.6541,-1.6547,-1.6607,-1.6598,-1.6605,-1.6617,-1.6675,-1.6676,-1.6678,-1.667,-1.6671,-1.6672,0,0,0,0,0,0,-1.6369,-1.6405,-1.6411,-1.6439,-1.6462,-1.6493,-1.6506,-1.6514,-1.6538,-1.6537,-1.6558,-1.6565,-1.6593,-1.6608,-1.6597,-1.6644,-1.6641,-1.6644,-1.6633,-1.6634,-1.6635,-1.663,-1.6603,0,0,0,0,0,-1.6369,-1.6391,-1.6422,-1.6443,-1.6454,-1.6478,-1.6492,-1.6504,-1.6528,-1.6537,-1.6558,-1.6581,-1.6606,-1.6621,-1.6644,-1.6673,-1.6681,-1.6685,-1.6686,-1.6687,-1.6689,-1.6707,-1.6709,-1.6683,-1.6683,-1.6683,0,0,-1.6369,-1.6392,-1.6404,-1.6441,-1.646,-1.6482,-1.6486,-1.6509,-1.6527,-1.6541,-1.657,-1.6586,-1.6614,-1.6643,-1.6657,-1.6657,-1.6698,-1.6688,-1.6689,-1.669,-1.6708,-1.6711,-1.6713,-1.6684,-1.6684,-1.6684,0,0,-1.6381,-1.64,-1.6421,-1.644,-1.6469,-1.6485,-1.649,-1.6521,-1.6533,-1.6563,-1.6575,-1.6596,-1.6636,-1.6656,-1.6671,-1.6694,-1.6701,-1.6701,-1.6705,-1.6723,-1.6725,-1.6727,-1.6735,-1.6738,-1.6703,-1.6703,-1.6703,0,-1.6377,-1.6411,-1.643,-1.6454,-1.647,-1.6486,-1.6507,-1.6525,-1.656,-1.6572,-1.6571,-1.6624,-1.6643,-1.6678,-1.6684,-1.6696,-1.6703,-1.6697,-1.6723,-1.6725,-1.6727,-1.6735,-1.6739,-1.6703,-1.6703,-1.6703,-1.6703,0,-1.6406,-1.643,-1.6443,-1.6477,-1.6496,-1.6518,-1.6541,-1.6558,-1.6568,-1.6585,-1.6616,-1.6641,-1.667,-1.668,-1.669,-1.6717,-1.6716,-1.6719,-1.6716,-1.6729,-1.6737,-1.6741,-1.6703,-1.6703,-1.6703,-1.6703,0,0,-1.6407,-1.6454,-1.6458,-1.6475,-1.6509,-1.6528,-1.6552,-1.6582,-1.6596,-1.6621,-1.6642,-1.6677,-1.6681,-1.6698,-1.6711,-1.6727,-1.6744,-1.6728,-1.6729,-1.673,-1.6776,-1.6773,-1.6777,-1.675,-1.675,-1.6751,-1.6774,0,-1.6423,-1.6466,-1.6486,-1.652,-1.6543,-1.656,-1.6581,-1.6605,-1.6622,-1.6644,-1.6664,-1.6689,-1.6691,-1.6702,-1.6718,-1.6738,-1.6753,-1.6737,-1.677,-1.6771,-1.6761,-1.6781,-1.6778,-1.6798,-1.6777,-1.6778,-1.6778,0,-1.6447,-1.6473,-1.651,-1.6543,-1.6554,-1.6572,-1.6602,-1.6623,-1.6651,-1.6663,-1.6684,-1.6697,-1.6724,-1.6721,-1.6759,-1.6747,-1.6762,-1.6775,-1.6776,-1.6779,-1.6774,-1.6784,-1.6805,-1.6808,-1.6783,-1.6783,-1.6783,0,-1.6445,-1.6489,-1.6517,-1.6531,-1.657,-1.6583,-1.66,-1.6628,-1.6645,-1.6672,-1.6684,-1.6713,-1.6728,-1.6751,-1.6772,-1.6768,-1.6809,-1.6807,-1.6819,-1.6819,-1.6826,-1.6825,-1.6849,-1.6836,-1.6836,-1.6836,-1.6836,0,-1.6461,-1.6483,-1.6517,-1.6534,-1.656,-1.6583,-1.6608,-1.6627,-1.6652,-1.6673,-1.669,-1.671,-1.6737,-1.6761,-1.6778,-1.6807,-1.6814,-1.6825,-1.6829,-1.6823,-1.6821,-1.6832,-1.6831,-1.6837,-1.6837,-1.6837,-1.6837,0,-1.6462,-1.6486,-1.6518,-1.6553,-1.6563,-1.6581,-1.6611,-1.6629,-1.6648,-1.6676,-1.6684,-1.6713,-1.6743,-1.6766,-1.6804,-1.6816,-1.6847,-1.6852,-1.6837,-1.6839,-1.685,-1.6849,-1.6881,-1.6887,-1.6871,-1.6871,-1.6871,0,-1.647,-1.6488,-1.6526,-1.6542,-1.6559,-1.6584,-1.6603,-1.6627,-1.6645,-1.668,-1.6694,-1.6724,-1.675,-1.6796,-1.6822,-1.6851,-1.6857,-1.6866,-1.6861,-1.6855,-1.6857,-1.6856,-1.6858,-1.6866,-1.6866,-1.6867,-1.6867,0,-1.6482,-1.6494,-1.6519,-1.6549,-1.6571,-1.6596,-1.6621,-1.6633,-1.6662,-1.6682,-1.6712,-1.6733,-1.6773,-1.6803,-1.6836,-1.6854,-1.6866,-1.6868,-1.6873,-1.6866,-1.6857,-1.6863,-1.6838,-1.6867,-1.6867,-1.6867,-1.6867,-1.6867,-1.6488,-1.6505,-1.6534,-1.6563,-1.6585,-1.6608,-1.6627,-1.6649,-1.6675,-1.671,-1.6723,-1.6754,-1.6784,-1.6829,-1.6848,-1.6874,-1.6875,-1.6881,-1.6883,-1.6884,-1.6883,-1.6854,-1.688,-1.688,-1.688,-1.688,-1.688,0,-1.6501,-1.6521,-1.6547,-1.6583,-1.6605,-1.6615,-1.6644,-1.6662,-1.669,-1.6717,-1.6742,-1.6778,-1.6809,-1.6837,-1.6869,-1.6884,-1.689,-1.6892,-1.689,-1.6895,-1.688,-1.6873,-1.6886,-1.6886,-1.6886,-1.6886,-1.6886,-1.6886,-1.651,-1.654,-1.6555,-1.6596,-1.6617,-1.6648,-1.6664,-1.6686,-1.6708,-1.6748,-1.6773,-1.6792,-1.682,-1.6854,-1.6883,-1.6891,-1.6902,-1.6902,-1.6911,-1.6897,-1.6896,-1.6895,-1.6888,-1.6904,-1.6904,-1.6923,-1.6924,-1.6924]},{"header":{"parameterUnit":"m.s-1","parameterCategory":1,"la1":30.2991,"la2":30.254,"lo1":-89.0895,"lo2":-89.0444,"dy":0.0017,"dx":0.0017,"nx":28,"ny":28,"refTime":"2024-05-15T09:00:00:Z","depth":0,"parameterNumber":3,"parameterNumberName":"V-component_of_WINDS"},"data":[0,0,0,0,0,0,0,0,0,0,0,0,0,0,0,0,0,0,0,0,0,0,0,0,0,0,0,0,0,0,0,0,0,0,0,0,0,0,0,0,0,0,0,0,0,0,0,0,0,0,0,0,0,0,0,0,0,0,6.0287,6.0288,0,6.0364,6.0364,6.0365,6.0319,6.0316,6.0314,6.0312,6.0386,6.039,6.0394,0,0,0,0,0,0,0,0,0,0,0,0,0,6.0096,6.01,6.0287,6.0288,6.0289,6.0363,6.0364,6.0365,6.0319,6.0316,6.0314,6.0311,6.0385,6.0389,6.0394,0,0,0,0,0,0,0,0,0,0,0,0,0,6.0177,6.0101,6.0287,6.0275,6.0275,6.0363,6.0364,6.0366,6.0319,6.0316,6.0313,6.031,6.0383,6.0389,6.0395,6.0498,0,0,6.0413,6.0416,0,0,0,0,0,0,0,0,6.0172,6.0184,6.0276,6.0276,6.0276,6.0328,6.0324,6.041,6.032,6.0302,6.0312,6.0308,6.0369,6.0376,6.0398,6.0502,6.0505,6.0414,6.0418,6.042,6.0422,0,0,0,0,0,0,0,6.0167,6.018,6.0317,6.0277,6.0277,6.0264,6.0272,6.034,6.0353,6.0304,6.03,6.031,6.0368,6.0392,6.0399,6.0506,6.0414,6.0419,6.0423,6.0425,6.0697,6.07,0,0,0,0,0,0,6.0163,6.0176,6.0315,6.032,6.0215,6.027,6.0279,6.0315,6.0352,6.0355,6.0313,6.0308,6.0383,6.0392,6.0401,6.0524,6.042,6.0426,6.0429,6.0693,6.0698,6.0702,0,0,0,0,0,0,6.0159,6.0175,6.0312,6.0247,6.0263,6.0277,6.0318,6.0318,6.0341,6.036,6.0361,6.0335,6.0381,6.0393,6.0474,6.0526,6.0429,6.0434,6.0689,6.0695,6.07,6.077,0,0,0,0,0,0,6.0153,6.0174,6.0215,6.0248,6.0267,6.0385,6.0321,6.0322,6.0352,6.0346,6.0381,6.0383,6.0379,6.0466,6.0481,6.0532,6.0439,6.0685,6.0692,6.0698,6.0763,6.0777,6.0789,0,0,0,0,0,6.0147,6.0231,6.0217,6.0234,6.0318,6.0388,6.0399,6.0394,6.0357,6.0397,6.0408,6.0382,6.0518,6.0475,6.0491,6.0545,6.0681,6.069,6.0697,6.0757,6.0774,6.0789,0,0,0,0,0,0,6.0203,6.0236,6.022,6.0319,6.0351,6.038,6.0431,6.0413,6.0456,6.0448,6.0439,6.0447,6.0532,6.0547,6.0498,6.0646,6.0593,6.0605,6.0633,6.065,6.0662,6.0657,6.0444,0,0,0,0,0,6.0227,6.0283,6.0308,6.0392,6.0409,6.0417,6.0448,6.0441,6.0474,6.0487,6.0505,6.0536,6.0586,6.0619,6.0665,6.0765,6.0771,6.081,6.0823,6.0834,6.0844,6.0896,6.0913,6.0728,6.0728,6.0728,0,0,6.0277,6.0301,6.0337,6.0404,6.0428,6.0484,6.0429,6.0491,6.0532,6.0496,6.0574,6.0588,6.0623,6.0713,6.0754,6.0728,6.0896,6.0844,6.0853,6.0857,6.0906,6.0923,6.0939,6.0734,6.0733,6.0732,0,0,6.0396,6.0421,6.0493,6.0519,6.0557,6.0562,6.0579,6.0611,6.0619,6.0698,6.0671,6.0719,6.0805,6.0831,6.0855,6.0982,6.0959,6.0998,6.1065,6.1116,6.113,6.1143,6.1187,6.1203,6.1008,6.1008,6.1008,0,6.0453,6.0538,6.0532,6.0596,6.0625,6.0596,6.0668,6.0693,6.0744,6.0764,6.0734,6.0841,6.0862,6.0958,6.0989,6.101,6.1028,6.0993,6.1129,6.1142,6.1154,6.1195,6.1212,6.1012,6.1012,6.1011,6.1011,0,6.0605,6.0664,6.0717,6.0768,6.0803,6.0871,6.0874,6.091,6.09,6.0907,6.0987,6.1011,6.1062,6.1084,6.1075,6.1178,6.116,6.113,6.1077,6.1176,6.1215,6.1231,6.1019,6.1017,6.1016,6.1015,0,0,6.0762,6.0808,6.0828,6.085,6.0889,6.0934,6.0999,6.105,6.108,6.1116,6.1169,6.1242,6.1214,6.1242,6.1235,6.128,6.1377,6.1244,6.1244,6.1267,6.149,6.1511,6.153,6.1362,6.1365,6.1368,6.1486,0,6.0882,6.0998,6.0994,6.1101,6.1155,6.1127,6.1184,6.1213,6.1221,6.1266,6.1275,6.1326,6.1287,6.1303,6.1346,6.1356,6.1422,6.1348,6.141,6.1412,6.1401,6.1551,6.1574,6.1685,6.1502,6.1505,6.1506,0,6.1039,6.1081,6.1193,6.1223,6.1245,6.1297,6.1342,6.1386,6.1417,6.142,6.1451,6.1436,6.15,6.1446,6.1533,6.1483,6.1508,6.1517,6.1521,6.1525,6.1465,6.1558,6.1721,6.1737,6.1531,6.1529,6.1527,0,6.1141,6.1225,6.1303,6.1322,6.136,6.1396,6.1413,6.1442,6.1472,6.151,6.1529,6.1575,6.16,6.1634,6.1632,6.1593,6.172,6.1666,6.1722,6.1722,6.1749,6.1748,6.1917,6.1768,6.1767,6.1767,6.1767,0,6.1275,6.1345,6.1349,6.1396,6.1473,6.1467,6.1542,6.1555,6.158,6.1629,6.1607,6.1653,6.1647,6.1693,6.1691,6.1762,6.1774,6.1777,6.1775,6.1778,6.1778,6.1794,6.1785,6.1772,6.1771,6.177,6.1769,0,6.1402,6.1408,6.149,6.1519,6.1527,6.1582,6.1605,6.165,6.1656,6.1717,6.1731,6.174,6.1792,6.1794,6.1853,6.1852,6.1939,6.1929,6.1928,6.1926,6.1982,6.1976,6.2167,6.2191,6.2027,6.2029,6.203,0,6.1487,6.154,6.1574,6.1605,6.1625,6.1676,6.1706,6.1702,6.1734,6.1773,6.1812,6.1863,6.1902,6.1986,6.1998,6.2042,6.2033,6.2096,6.2039,6.204,6.2032,6.2029,6.2033,6.2107,6.2109,6.2111,6.2112,0,6.1637,6.1637,6.1683,6.1729,6.1766,6.1802,6.1836,6.1862,6.1861,6.1898,6.1952,6.1983,6.2043,6.2092,6.2136,6.2151,6.2131,6.213,6.2145,6.2148,6.2145,6.2146,6.1957,6.2125,6.2124,6.2123,6.2122,6.2122,6.1745,6.179,6.1821,6.1872,6.1896,6.1927,6.197,6.1982,6.2026,6.2076,6.207,6.2129,6.2157,6.2214,6.2233,6.2277,6.2255,6.2278,6.2283,6.2288,6.2294,6.2139,6.2285,6.2285,6.2285,6.2284,6.2284,0,6.1893,6.1911,6.1958,6.2006,6.2045,6.2024,6.2059,6.2093,6.2145,6.2174,6.2214,6.2274,6.2321,6.2336,6.2381,6.2414,6.2406,6.2426,6.2423,6.2427,6.2312,6.2294,6.2432,6.2432,6.2432,6.2432,6.2432,6.2432,6.1975,6.2049,6.2053,6.2138,6.2155,6.2214,6.2235,6.2263,6.2286,6.2355,6.2394,6.2404,6.2426,6.2473,6.2515,6.2518,6.2535,6.2559,6.2558,6.245,6.2435,6.2421,6.2403,6.2563,6.2563,6.2668,6.2669,6.267]}]]